Regional Weather Roundup
Issued by NWS Newport/Morehead, NC

Current Version | Previous Version | Text Only | Print | Product List | Glossary On
Versions: 1 2 3 4 5 6 7 8 9 10 11 12 13 14 15 16 17 18 19 20 21 22 23 24 25 26 27 28 29 30 31 32 33 34 35 36 37 38 39 40 41 42 43 44 45 46 47 48 49 50
475 ASUS42 KMHX 230414 RWRMHX WEATHER ROUNDUP FOR EASTERN NORTH CAROLINA NATIONAL WEATHER SERVICE NEWPORT/MOREHEAD CITY NC 1200 AM EDT MON APR 23 2018 NOTE: "FAIR" INDICATES FEW OR NO CLOUDS BELOW 12,000 FEET WITH NO SIGNIFICANT WEATHER AND/OR OBSTRUCTIONS TO VISIBILITY NCZ015>017-031-032-045>047-102-103-230500- NORTH COAST CITY SKY/WX TMP DP RH WIND PRES REMARKS EDENTON FAIR 55 50 82 SE3 30.39F ELIZABETH CITY FAIR 52 47 83 E6 30.39F KITTY HAWK FAIR 51 45 79 E3 30.38F MANTEO FAIR 53 46 78 E8 30.40S $$ NCZ045>047-081-094-103-104-230500- CENTRAL COAST CITY SKY/WX TMP DP RH WIND PRES REMARKS FRISCO FAIR 55 52 89 E3 30.38R $$ NCZ095-097-098-100-101-230500- SOUTHERN COAST CITY SKY/WX TMP DP RH WIND PRES REMARKS BEAUFORT FAIR 57 53 86 CALM 30.35F CEDAR ISLAND NOT AVBL JACKSONVILLE FAIR 58 51 78 E6 30.34S PINEY ISLAND NOT AVBL WILMINGTON FAIR 60 54 80 E9 30.31F $$ NCZ011>013-027>030-043-044-078>080-089-090>093-098-230500- COASTAL PLAIN CITY SKY/WX TMP DP RH WIND PRES REMARKS AHOSKIE FAIR 51 43 76 SE3 30.38S CLINTON FAIR 57 41 55 E5 30.34S ELIZABETHTOWN FAIR 58 42 55 MISG 30.31S GOLDSBORO FAIR 54 42 63 E8 30.33F GREENVILLE FAIR 52 43 71 E3 30.37S HAVELOCK NOT AVBL KENANSVILLE FAIR 55 39 54 E3 30.35F KINSTON FAIR 55 47 74 E7 30.37F NEW BERN FAIR 54 50 86 E7 30.37F RICHLANDS FAIR 55 46 71 NE10 30.35S ROCKY MOUNT FAIR 54 38 54 CALM 30.36F WASHINGTON FAIR 52 45 78 E5 30.38S WHITEVILLE CLOUDY 59 48 67 E7 30.30S $$ AMZ130-135-150-152-154-156-158-170-250-252-270-ANZ085-086-088-633-658-670-230500- MARINE OBSERVATIONS STATION/POSITION TIME TEMP WIND PRES WAVE SWELL AIR SEA DIR/SP/G HT/PER HT/PER (UTC) (F) (DEG/KT/KT) (MB) (FT/S) (FT/S) CHESAPEAKE LIGHT NOT AVBL 64 E VA BEACH 0350 52 50 90/ 8/ 10 1030.1 2/ 8 2/ 8 DUCK 0336 53 54 100/ 10/ 11 1028.8 2 E DUCK 0400 53 N/A 2/13 2/13 OREGON INLET 0336 53 58 40/ 8/ 10 1029.0 13E OREGON INLT 0348 51 N/A 2/15 2/15 HATTERAS CG 0336 57 62 60/ 8/ 10 1028.7 DIAMOND BUOY 0400 65 74 100/ 12/ 16 1029.0 CAPE LOOKOUT 0400 110/ 12/ 13 1027.9 BEAUFORT LAB 0336 56 64 30/ 5/ 7 1028.0 30 SE NEW RVR IN 0308 66 65 130/ 14/ 17 1026.8 30 SE NEW RVR IN 0400 65 N/A 4/ 5 27 SE WRIGHTSVLE 0308 66 65 140/ 16/ 21 1026.8 5 SE WRIGHTSVLE 0308 61 60 80/ 10/ 14 1026.5 225 S CAPE HAT 0400 67 72 110/ 16/ 19 1024.7 41 SE CHARLESTON 0400 69 67 100/ 17/ 23 1023.5 $$

USA.gov is the U.S. government's official web portal to all federal, state and local government web resources and services.